   US/Hawaii.  Observers R. Weryk, S. Deen. 3.6-m Canada-France-Hawaii
   Telescope.
(U94) iTelescope Observatory, Beryl Junction  (N37.737780 W113.697500)
   US/Utah.  Observer H. Sato. 0.51-m f/4.5 Corrected Dall-Kirkham +
   CCD0.51-m f/6.8 astrograph + f/4.5 focal reducer + CCD.
(V06) Catalina Sky Survey-Kuiper  (N32.416871 W110.732550)  US/Arizona.
   Observers T. A. Pruyne, B. M. Africano, E. J. Christensen, G. A. Farneth,
   D. C. Fuls, A. R. Gibbs, A. D. Grauer, H. Gröller, J. A. Johnson, R. A.
   Kowalski, S. M. Larson, G. J. Leonard, D. Rankin, R. L. Seaman, F. C.
   Shelly, K. W. Wierzchoś. 1.55-m reflector + CCD.
(W62) Comet Hunter Observatory2, New Ringgold  (N40.745185 W75.862390)
   US/Pennsylvania.  Observer J. Maikner. 0.30-m f/3.8 Riccardi-Honders + CCD.
(Y66) Two-Meter Twin Telescope, TTT2, Teide  (N28.298728 W16.509470)  Canary
   Islands (Spain).

Orbital elements:  P21TuJa
   Perihelion 2026 Mar 21.79572 +/- 0.00413 TT = 19:05:50 (JD 2461121.29572)
Epoch 2024 May  6.0 TT = JDT 2460436.5   Ju: 0.7250   Ne: 0.6263
M 359.99608536 +/- 0.00006          (J2000 ecliptic)             AutoNEOCP
n   0.00000571 +/- 8.8e-8           Peri.  131.43355 +/- 0.0007
a3097.77008 +/- 32.4                Node   153.00567 +/- 0.000058
e   0.9984185 +/- 1.63e-5           Incl.   33.02910 +/- 0.000037
P 172414                   H 12.15  G  0.15   U  1.8
q 4.89898203 +/- 4.97e-5    Q 6190.64118 +/- 64.7
88 of 93 observations 2021 Jan. 12-2024 May 6; mean residual 0".34
Residuals in arcseconds: 
210112 T14  .05+  .19-    240406 F51  .13-  .13-    240427 Y66  .65-  .14-    
220209 F52( .47+  .57+)   240406 F51  .15+  .39-    240427 Y66  .31+  .02+    
220209 F52  .52+  .07+    240410 F52  .04-  .20-    240427 Y66  .70-  .22-    
220302 F52( .73-  .33+)   240410 F52  .26-  .15+    240427 Y66  .30-  .04+    
220302 F52  .06+  .07+    240410 F52  .50+  .03-    240427 C82  .24+  .93-    
220302 F52  .01-  .07-    240410 F52  .05-  .13+    240427 C82( 1.4-  1.3+)   
220306 F52  .19-  .06-    240411 V06  .18-  .08+    240429 691  .01+  .41-    
220306 F52  .60-  .19-    240411 V06  .09-  .10-    240429 691  .10-  .07+    
220306 F52  .00   .09-    240411 V06  .19+  .23+    240429 691  .35-  .15-    
220306 F52  .26+  .13-    240411 V06  .25-  .09+    240429 A71  .29+  .38+    
220308 F52  .04+  .23+    240413 L06  .18-  .26-    240429 A71  .20-  .20-    
220310 F52  .27-  .19-    240413 L06  .37-  .19-    240502 W62  .01-  .09+    
220328 F52  .18-  .10-    240413 L06  .43-  .02-    240502 W62  .03+  .21+    
220328 F52  .06+  .19+    240415 L01  .19-  .14+    240502 W62  .04+  .13+    
220408 F52  .06-  .54+    240415 L01  .59-  .90-    240503 Y66  .18+  .04-    
220408 F52  .11-  .14+    240415 L01  1.1-  .41-    240503 Y66  .05+  .13+    
230313 F51( .26-  .77+)   240416 Y66  .08-  .21+    240503 Y66  .34+  .20-    
230330 F52  .26-  .07-    240416 Y66  .26+  .07+    240503 Y66  .20+  .14-    
230330 F52  .10+  .32+    240416 Y66  .45+  .23+    240504 094  .26-  .24+    
230416 F52  .08+  .05+    240417 U94  .16+  .24-    240504 094  .04-  .01+    
230416 F52( .78+  .26-)   240417 U94  .16-  .29+    240504 094  .10+  .59-    
230424 F52  .21+  .22-    240419 204  .78-  .46+    240504 094  .11-  .09+    
230424 F52  .03-  .05-    240419 204  .51-  .49+    240504 T14  .10+  .10+    
240319 G96  .04+  .57-    240419 204  .57-  1.0-    240504 T14  .13+  .04+    
240319 G96  .47-  .17-    240419 204  1.1-  1.0-    240504 T14  .08+  .12+    
240319 G96  .83-  .26+    240420 291  1.2-  .18-    240504 673  .39-  .17-    
240319 G96  .16-  .21-    240420 291  .44-  .06+    240504 673  .33-  .45-    
240321 F52  .29-  .35-    240426 Y66  .12+  .47+    240506 Y66  .45+  .22+    
240331 F52  .03-  .08+    240426 Y66  .12+  .05-    240506 Y66  .28+  .38+    
240406 F51  .15+  .24+    240426 Y66  .03+  .70-    240506 Y66  .43+  .48+    
240406 F51  .17+  .05+    240427 Y66  .36+  .48-    240506 Y66  .34+  .32+    

Ephemerides (geocentric):
Date (UTC) HH   RA             Dec           delta  r     elong  mag " sig PA
---- --------  ------------   ------------  ------ ------ -----  --- --------
2024 05 08 01  14 39 38.967   +20 05 38.66  6.2484 7.0756 142.5 20.8 .041 109
2024 05 08 02  14 39 38.121   +20 05 43.25  6.2484 7.0754 142.5 20.8 .041 109
2024 05 08 03  14 39 37.275   +20 05 47.82  6.2484 7.0752 142.4 20.8 .041 109
2024 05 08 04  14 39 36.429   +20 05 52.38  6.2483 7.0750 142.4 20.8 .041 109
2024 05 08 05  14 39 35.583   +20 05 56.94  6.2483 7.0748 142.4 20.8 .041 109
2024 05 08 06  14 39 34.738   +20 06 01.48  6.2482 7.0746 142.4 20.8 .041 109
2024 05 08 07  14 39 33.892   +20 06 06.01  6.2482 7.0744 142.4 20.8 .041 108
2024 05 08 08  14 39 33.046   +20 06 10.53  6.2481 7.0742 142.3 20.8 .041 108
2024 05 08 09  14 39 32.201   +20 06 15.04  6.2481 7.0739 142.3 20.8 .041 108
2024 05 08 10  14 39 31.355   +20 06 19.54  6.2481 7.0737 142.3 20.8 .041 108
2024 05 08 11  14 39 30.510   +20 06 24.04  6.2480 7.0735 142.3 20.8 .042 108
2024 05 08 12  14 39 29.665   +20 06 28.52  6.2480 7.0733 142.3 20.8 .042 108
2024 05 08 13  14 39 28.820   +20 06 32.99  6.2479 7.0731 142.2 20.8 .042 108
2024 05 08 14  14 39 27.975   +20 06 37.45  6.2479 7.0729 142.2 20.8 .042 108
2024 05 08 15  14 39 27.130   +20 06 41.90  6.2478 7.0727 142.2 20.8 .042 108
2024 05 08 16  14 39 26.285   +20 06 46.34  6.2478 7.0725 142.2 20.8 .042 108
2024 05 08 17  14 39 25.440   +20 06 50.77  6.2478 7.0723 142.2 20.8 .042 108
2024 05 08 18  14 39 24.595   +20 06 55.19  6.2477 7.0720 142.2 20.8 .042 108
2024 05 08 19  14 39 23.751   +20 06 59.59  6.2477 7.0718 142.1 20.8 .042 108
2024 05 08 20  14 39 22.906   +20 07 03.99  6.2477 7.0716 142.1 20.8 .043 108
2024 05 08 21  14 39 22.062   +20 07 08.38  6.2476 7.0714 142.1 20.8 .043 108
2024 05 08 22  14 39 21.218   +20 07 12.76  6.2476 7.0712 142.1 20.8 .043 108
2024 05 08 23  14 39 20.374   +20 07 17.12  6.2475 7.0710 142.1 20.8 .043 108
2024 05 09 00  14 39 19.529   +20 07 21.48  6.2475 7.0708 142.0 20.8 .043 108
2024 05 09 01  14 39 18.685   +20 07 25.83  6.2475 7.0706 142.0 20.8 .043 108
2024 05 09 02  14 39 17.842   +20 07 30.16  6.2474 7.0704 142.0 20.8 .043 108
2024 05 09 03  14 39 16.998   +20 07 34.49  6.2474 7.0701 142.0 20.8 .043 108
2024 05 09 04  14 39 16.154   +20 07 38.81  6.2474 7.0699 142.0 20.8 .043 108
2024 05 09 05  14 39 15.311   +20 07 43.11  6.2473 7.0697 141.9 20.8 .043 108
2024 05 09 06  14 39 14.467   +20 07 47.41  6.2473 7.0695 141.9 20.8 .044 108
2024 05 09 07  14 39 13.624   +20 07 51.69  6.2473 7.0693 141.9 20.8 .044 108
2024 05 09 08  14 39 12.780   +20 07 55.97  6.2472 7.0691 141.9 20.8 .044 108
2024 05 09 09  14 39 11.937   +20 08 00.23  6.2472 7.0689 141.9 20.8 .044 108
2024 05 09 10  14 39 11.094   +20 08 04.48  6.2472 7.0687 141.8 20.8 .044 108
2024 05 09 11  14 39 10.251   +20 08 08.73  6.2471 7.0685 141.8 20.8 .044 108
2024 05 09 12  14 39 09.409   +20 08 12.96  6.2471 7.0682 141.8 20.8 .044 108
2024 05 09 13  14 39 08.566   +20 08 17.18  6.2471 7.0680 141.8 20.8 .044 108
2024 05 09 14  14 39 07.723   +20 08 21.39  6.2470 7.0678 141.8 20.8 .044 108
2024 05 09 15  14 39 06.881   +20 08 25.60  6.2470 7.0676 141.7 20.8 .045 108
2024 05 09 16  14 39 06.039   +20 08 29.79  6.2470 7.0674 141.7 20.8 .045 108
2024 05 09 17  14 39 05.196   +20 08 33.97  6.2470 7.0672 141.7 20.8 .045 108
2024 05 09 18  14 39 04.354   +20 08 38.14  6.2469 7.0670 141.7 20.8 .045 108
2024 05 09 19  14 39 03.512   +20 08 42.30  6.2469 7.0668 141.7 20.8 .045 108
2024 05 09 20  14 39 02.670   +20 08 46.45  6.2469 7.0666 141.7 20.8 .045 108
2024 05 09 21  14 39 01.829   +20 08 50.59  6.2468 7.0664 141.6 20.8 .045 108
2024 05 09 22  14 39 00.987   +20 08 54.72  6.2468 7.0661 141.6 20.8 .045 108
2024 05 09 23  14 39 00.146   +20 08 58.84  6.2468 7.0659 141.6 20.8 .045 108
2024 05 10 00  14 38 59.304   +20 09 02.94  6.2468 7.0657 141.6 20.8 .046 108